sat.trackr.live / text

‹ back to catalog

ONEWEB-0610

NORAD 54673 · 2022-166AH

PAYLOAD ACTIVE UNKNOWN

§ Identity

Operator
Country
UK
Launch date
2022-12-08
Launch site
AFETR
Launch vehicle
Mass (kg)
RCS (m²)

Purposes: comms

External: N2YO · Heavens-Above · Gunter

§ Orbital elements

Epoch: 2026-09-20T04:29:52.453824Z

Period
108.94 min
Inclination
87.9282°
Eccentricity
0.0002628
Mean motion
13.21826437 rev/d
Perigee alt
1,175.8 km
Apogee alt
1,179.7 km
Semi-major
7,555.9 km
B*
-6.8112e-5
RAAN
225.0701°
Arg perigee
85.0864°
Mean anomaly
275.0570°
Rev number
18,400

§ Raw data

ONEWEB-06101 54673U 22166AH  26263.18741266 -.00000015  00000+0 -68112-4 0  99952 54673  87.9282 225.0701 0002628  85.0864 275.0570 13.21826437184005

JSON: /api/v1/satellites/54673 · /tle

For live sub-satellite position, see the globe view (requires WebGL).

§ Visibility from observer

Set your observer location to see the next 7 days of passes ≥ 10°. The values pass through the URL so the page stays shareable.

No JS? Fill the form by hand. The geolocation button needs JavaScript.